Location: Marengo
(51.4813°N, 109.7825°W)
Time: 06:33:43
(UTC+00:00)

BlueWalker 3 - Pass Details

Date: 05 December 2022
Orbit: 499 x 517 km, 53.2° (Epoch: 28 January)

Event Time Altitude Azimuth Distance (km) Brightness Sun altitude
Rises 00:49:56 0° 279° (W) 2,634 6.8 -14.4°
Reaches altitude 10° 00:52:09 10° 282° (WNW) 1,743 5.6 -14.7°
Maximum altitude 00:56:05 70° 7° (N) 550 2.0 -15.3°
Enters shadow 00:57:52 31° 83° (E) 925 2.7 -15.5°
